Regional Weather Roundup
Issued by NWS

Home | Current Version | Previous Version | Graphics & Text | Print | Product List | Glossary On
Versions: 1 2 3 4 5 6 7 8 9 10 11 12 13 14 15 16 17 18 19 20 21 22 23 24 25 26 27 28 29 30 31 32 33 34 35 36 37 38 39 40 41 42 43 44 45 46 47 48 49 50
000
ASUS43 KMKX 311721
RWRWI

WISCONSIN REGIONAL WEATHER ROUNDUP
NATIONAL WEATHER SERVICE MILWAUKEE/SULLIVAN WI
1200 PM CDT FRI JUL 31 2015

NOTE: "FAIR" INDICATES FEW OR NO CLOUDS BELOW 12,000 FEET WITH NO
SIGNIFICANT WEATHER AND/OR OBSTRUCTIONS TO VISIBILITY.

WIZ001-002-006>008-014>016-023>028-311800-
NORTHWEST WISCONSIN

CITY           SKY/WX    TMP DP  RH WIND       PRES   REMARKS
SUPERIOR ARPT  CLOUDY    74  55  51 NW14G21   29.98S
ASHLAND        SUNNY     75  54  47 NW15G23   29.96S
HAYWARD        MOSUNNY   74  50  42 W14G23    30.00S
SIREN          PTSUNNY   75  53  47 NW13G23   30.03S
CUMBERLAND     MOSUNNY   72  52  49 NW15G23   30.03S
RICE LAKE      PTSUNNY   73  54  50 W14G21    30.04S
CHETEK         MOSUNNY   76  55  48 W12G24    30.02S
LADYSMITH      MOSUNNY   75  52  44 W20G28    30.02S
EAU CLAIRE     SUNNY     78  53  41 W20G25    30.02S
MENOMONIE      SUNNY     77  51  39 NW16G28   30.04S
NEW RICHMOND   SUNNY     74  52  44 NW14G25   30.06S
OSCEOLA        SUNNY     75  52  43 W21G26    30.08S
$$

WIZ003>005-009-010-017-018-311800-
NORTH CENTRAL WISCONSIN

CITY           SKY/WX    TMP DP  RH WIND       PRES   REMARKS
MANITOWISH WTR PTSUNNY   71  54  55 NW17G23   29.95S
ARBOR VITAE    MOSUNNY   72  55  54 NW10G20   29.96R
WOODRUFF       MOSUNNY   72  55  54 NW10G20   29.96R
RHINELANDER    PTSUNNY   75  51  43 W15G23    29.96F
EAGLE RIVER    MOSUNNY   73  50  44 W15G23    29.94S
LAND O LAKES   MOSUNNY   73  51  45 NW12      29.94S
PHILLIPS       MOSUNNY   73  55  52 NW8G18    29.98S
TOMAHAWK       MOSUNNY   73  54  51 W14G20    29.97S
MEDFORD        PTSUNNY   73  54  51 NW15G22   30.00S
MERRILL        NOT AVBL
$$

WIZ029-030-035-036-043>047-311800-
CENTRAL WISCONSIN

CITY           SKY/WX    TMP DP  RH WIND       PRES   REMARKS
WAUSAU         MOSUNNY   77  49  37 NW16G30   29.96S
MOSINEE        MOSUNNY   75  52  43 NW20G29   29.99S
MARSHFIELD     MOSUNNY   77  49  37 NW21G32   30.00F
STEVENS POINT  PTSUNNY   74  52  45 NW14G22   29.98S
WAUPACA        MOSUNNY   80  49  33 W16G25    29.96S HX  80
WAUTOMA        MOSUNNY   81  49  32 NW20G29   29.98S HX  80
WISC RAPIDS    PTSUNNY   77  49  37 NW14G26   30.00F
CAMP DOUGLAS   MOSUNNY   79  54  41 W18G26    30.01S
$$

WIZ011>013-019>022-031-037>040-048>050-311800-
NORTHEAST WISCONSIN

CITY           SKY/WX    TMP DP  RH WIND       PRES   REMARKS
ANTIGO         PTSUNNY   73  53  49 NW15G22   29.96S
SHAWANO        MOSUNNY   80  54  40 NW15G21   29.92S HX  80
OCONTO         PTSUNNY   81  56  42 W17G25    29.88S HX  81
STURGEON BAY   PTSUNNY   75  55  50 W12       29.91S
GREEN BAY      MOSUNNY   79  59  50 W16G25    29.91F HX  80
MANITOWOC      MOSUNNY   81  56  42 MISG      29.91S HX  81
APPLETON       PTSUNNY   77  46  33 W21G29    29.95S
CLINTONVILLE   MOSUNNY   79  48  34 NW14G23   29.93S
OSHKOSH        MOSUNNY   79  51  37 W23G31    29.94F
$$

WIZ032>034-041-042-053>061-311800-
SOUTHWEST WISCONSIN

CITY           SKY/WX    TMP DP  RH WIND       PRES   REMARKS
LA CROSSE      SUNNY     80  52  37 NW17G26   30.04S HX  80
SPARTA         SUNNY     79  46  31 W15G28    30.04S
VIROQUA        SUNNY     76  51  42 NW15G21   30.06F
BOSCOBEL       SUNNY     83  51  33 NW16G25   30.05F HX  81
PRAIRIE DU CHI SUNNY     82  46  28 NW16G23   30.05F HX  80
PLATTEVILLE    SUNNY     80  55  41 W13G22    30.06F HX  80
$$

WIZ056-057-062-063-064-067-068-311800-
SOUTH CENTRAL WISCONSIN

CITY           SKY/WX    TMP DP  RH WIND       PRES   REMARKS
REEDSBURG      SUNNY     79  51  36 NW21G28   30.02S
BARABOO/DELLS  MOSUNNY   78  43  29 NW16G29   30.02S
LONE ROCK      SUNNY     82  51  34 NW16G29   30.03F HX  81
MINERAL POINT  SUNNY     79  48  34 W12G24    30.06S
MADISON        MOSUNNY   80  49  33 NW14G29   30.00S
MIDDLETON      SUNNY     81  45  27 W17G25    30.02S HX  80
WATERTOWN      SUNNY     80  53  39 W18G25    29.98F HX  80
MONROE         MOSUNNY   79  54  41 NW15G25   30.04S
JANESVILLE     MOSUNNY   84  54  34 NW20G26   30.00F HX  83
$$

WIZ051-052-058>065-066-070>072-311800-
SOUTHEAST WISCONSIN

CITY           SKY/WX    TMP DP  RH WIND       PRES   REMARKS
MILWAUKEE      MOSUNNY   83  51  33 W20G29    29.95F HX  81
WAUKESHA       MOSUNNY   81  48  32 W21G29    29.98S HX  80
MILWAUKEE/TIMM SUNNY     82  46  28 W17G28    29.96F HX  81
RACINE         SUNNY     84  52  33 W16G25    29.97F HX  82
BURLINGTON     MOSUNNY   81  53  38 W20G26    29.98F HX  80
KENOSHA        SUNNY     83  57  41 NW21G28   29.97F HX  82
FOND DU LAC    SUNNY     80  50  34 NW20G29   29.96S HX  80
SHEBOYGAN      MOSUNNY   79  54  41 W16G29    29.93S
WEST BEND      MOSUNNY   79  46  31 W20G26    29.96F
JUNEAU         SUNNY     77  53  43 NW14G24   29.99F
$$

LSZ147-162-311800-
LAKE SUPERIOR

STATION/POSITION TIME  TEMP    WIND        PRES    WAVE
                       AIR SEA DIR/SP/G            HT/PER
                 (UTC) (F)     (DEG/KT/KT) (MB)    (FT/S)
W MID LAKE BUOY  1650   58 54  250/ 14/ 16 1012.1R   2/ 3
DEVILS ISLAND    1700   61     250/ 15/ 18 1013.7R
PORT WING        1600   69     250/ 13/ 19 1014.9
SAXON HARBOR     1600   71                 1013.5S
$$

LMZ867-665-643>646-311800-
LAKE MICHIGAN

STATION/POSITION TIME  TEMP    WIND        PRES    WAVE
                       AIR SEA DIR/SP/G            HT/PER
                 (UTC) (F)     (DEG/KT/KT) (MB)    (FT/S)
CHAMBERS ISLAND  1600   75     230/  3/  8 1011.5S
S GREEN BAY BUOY 1700   72 71  280/ 12/ 14 1013.5F
N MID LAKE BUOY  1650   69 68  250/ 10/ 12 1010.5S   2/ 4
NORTHPORT PIER   1600   73     300/  8/ 13 1011.2S
SISTER BAY       1644   77     300/ 11/ 13   N/A
ALGOMA LAKESHORE 1612          300/ 11/ 17   N/A
KEWAUNEE LAKESHO 1600   76     290/  7/ 16 1011.8R
SHEBOYGAN LAKESH 1700   77     300/ 16/ 21 1013.3R
PORT WASHINGTON  1640   81     310/ 11/ 22 1014.6R
ATWATER BUOY     1700   75 64  290/ 19/ 25 1015.3F
MILWAUKEE LAKESH 1700   80     290/ 18/ 31   N/A
KENOSHA   LAKESH 1700   82     300/ 12/ 25 1013.9F
$$

TC  - TEMPERATURE IN CELSIUS
VSB - VISIBILITY IN STATUTE MILES
WCI - WIND CHILL INDEX
HX  - HEAT INDEX



USA.gov is the U.S. government's official web portal to all federal, state and local government web resources and services.